COSMOS 2407 [+]

Last updated on Wed Jun 28 2023 01:03:31 GMT+0100 (British Summer Time)

1 28380U 04028A 23178.17639541 .00000093 00000+0 78861-4 0 9997 2 28380 82.9599 159.0094 0040475 51.0491 320.4043 13.76158147950691
UTC large
Height (km)
Speed (km/s)
/
Latitude / Longitude
Inclination (degrees)
Orbital Period (minutes)
Azimuth
Elevation
Range (km)
Doppler Factor

Next 0 passes for location: London (51.5072 / 0.1276)

Sorry there are no passes over London.